When you browse on this site, cookies collect data to enhance your experience and personalize the content and advertising you see.
Visit our Privacy Policy to learn more. By continuing to use the site, you agree to this use of cookies and data.
  • In Netherlands
  • List of Countries
  • For 7 days
  • Water Temperature
  • Weather Map
  • Weather Widgets
  • user-avatar
    Login

    Hourly Weather Potosi

    Today, 14 December, Saturday

    Time Temperature Precipitation Wind Pressure Humidity
    00:00 +7°C° 0 mm 2 mps 467 mmHg 77%
    01:00 +7°C° 0 mm 2 mps 467 mmHg 78%
    02:00 +8°C° 0 mm 1 mps 466 mmHg 79%
    03:00 +7°C° 0 mm 1 mps 466 mmHg 81%
    04:00 +7°C° 0 mm 1 mps 466 mmHg 83%
    05:00 +7°C° 0 mm 1 mps 466 mmHg 85%
    06:00 +8°C° 0 mm 1 mps 467 mmHg 79%
    07:00 +8°C° 0 mm 1 mps 467 mmHg 73%
    08:00 +9°C° 0 mm 1 mps 468 mmHg 68%
    09:00 +10°C° 0 mm 2 mps 469 mmHg 60%
    10:00 +11°C° 0 mm 3 mps 469 mmHg 52%
    11:00 +12°C° 0 mm 3 mps 470 mmHg 44%
    12:00 +13°C° 0.3 mm 3 mps 470 mmHg 44%
    13:00 +13°C° 0.3 mm 4 mps 469 mmHg 43%
    14:00 +14°C° 0.3 mm 4 mps 469 mmHg 43%
    15:00 +13°C° 0.7 mm 4 mps 468 mmHg 48%
    16:00 +13°C° 0.7 mm 4 mps 468 mmHg 52%
    17:00 +12°C° 0.7 mm 4 mps 467 mmHg 57%
    18:00 +11°C° 1.1 mm 3 mps 467 mmHg 60%
    19:00 +11°C° 1.1 mm 3 mps 467 mmHg 64%
    20:00 +10°C° 1.1 mm 2 mps 467 mmHg 68%
    21:00 +9°C° 2.3 mm 2 mps 467 mmHg 73%
    22:00 +8°C° 2.3 mm 2 mps 467 mmHg 78%
    23:00 +7°C° 2.3 mm 3 mps 466 mmHg 83%

    Tomorrow, 15 December, Sunday

    Time Temperature Precipitation Wind Pressure Humidity
    00:00 +7°C° 1.9 mm 2 mps 466 mmHg 82%
    01:00 +6°C° 1.9 mm 2 mps 465 mmHg 81%
    02:00 +7°C° 1.9 mm 1 mps 465 mmHg 80%
    03:00 +7°C° 0 mm 1 mps 465 mmHg 79%
    04:00 +7°C° 0 mm 1 mps 465 mmHg 79%
    05:00 +6°C° 0 mm 0 mps 465 mmHg 79%
    06:00 +8°C° 0 mm 1 mps 466 mmHg 73%
    07:00 +9°C° 0 mm 1 mps 467 mmHg 67%
    08:00 +10°C° 0 mm 1 mps 467 mmHg 62%
    09:00 +12°C° 0 mm 1 mps 468 mmHg 54%
    10:00 +13°C° 0 mm 1 mps 469 mmHg 47%
    11:00 +15°C° 0 mm 1 mps 470 mmHg 39%
    12:00 +16°C° 0 mm 2 mps 470 mmHg 36%
    13:00 +17°C° 0 mm 3 mps 470 mmHg 32%
    14:00 +18°C° 0 mm 3 mps 469 mmHg 29%
    15:00 +17°C° 0 mm 4 mps 469 mmHg 30%
    16:00 +16°C° 0 mm 5 mps 469 mmHg 31%
    17:00 +16°C° 0 mm 6 mps 468 mmHg 32%
    18:00 +14°C° 1 mm 5 mps 468 mmHg 45%
    19:00 +12°C° 1 mm 5 mps 467 mmHg 57%
    20:00 +10°C° 1 mm 4 mps 466 mmHg 70%
    21:00 +10°C° 0.5 mm 3 mps 467 mmHg 68%
    22:00 +10°C° 0.5 mm 3 mps 467 mmHg 67%
    23:00 +10°C° 0.5 mm 2 mps 467 mmHg 65%

    Day after tomorrow, 16 December, Monday

    Time Temperature Precipitation Wind Pressure Humidity
    00:00 +9°C° 0.1 mm 2 mps 467 mmHg 68%
    01:00 +10°C° 0.1 mm 1 mps 467 mmHg 70%
    02:00 +10°C° 0.1 mm 1 mps 466 mmHg 73%
    03:00 +9°C° 0 mm 1 mps 466 mmHg 75%
    04:00 +8°C° 0 mm 2 mps 465 mmHg 76%
    05:00 +8°C° 0 mm 2 mps 465 mmHg 78%
    06:00 +8°C° 0 mm 2 mps 466 mmHg 73%
    07:00 +9°C° 0 mm 2 mps 466 mmHg 67%
    08:00 +10°C° 0 mm 2 mps 467 mmHg 62%
    09:00 +12°C° 0 mm 2 mps 468 mmHg 54%
    10:00 +14°C° 0 mm 2 mps 468 mmHg 46%
    11:00 +15°C° 0 mm 2 mps 469 mmHg 39%
    12:00 +16°C° 0.1 mm 2 mps 469 mmHg 38%
    13:00 +17°C° 0.1 mm 3 mps 469 mmHg 36%
    14:00 +17°C° 0.1 mm 3 mps 468 mmHg 35%
    15:00 +14°C° 1.4 mm 4 mps 466 mmHg 45%
    16:00 +12°C° 1.4 mm 4 mps 465 mmHg 55%
    17:00 +10°C° 1.4 mm 4 mps 463 mmHg 65%
    18:00 +10°C° 0.1 mm 4 mps 463 mmHg 65%
    19:00 +8°C° 0.1 mm 4 mps 464 mmHg 66%
    20:00 +8°C° 0.1 mm 4 mps 465 mmHg 66%
    21:00 +9°C° 0 mm 3 mps 465 mmHg 67%
    22:00 +8°C° 0 mm 2 mps 465 mmHg 69%
    23:00 +9°C° 0 mm 1 mps 465 mmHg 70%

    17 December, Tuesday

    Time Temperature Precipitation Wind Pressure Humidity
    00:00 +9°C° 0 mm 1 mps 465 mmHg 72%
    01:00 +9°C° 0 mm 1 mps 465 mmHg 73%
    02:00 +8°C° 0 mm 2 mps 465 mmHg 74%
    03:00 +7°C° 0 mm 2 mps 464 mmHg 77%
    04:00 +7°C° 0 mm 2 mps 464 mmHg 80%
    05:00 +6°C° 0 mm 2 mps 464 mmHg 83%
    06:00 +7°C° 0 mm 2 mps 465 mmHg 79%
    07:00 +8°C° 0 mm 2 mps 466 mmHg 75%
    08:00 +8°C° 0 mm 2 mps 466 mmHg 71%
    09:00 +10°C° 0 mm 2 mps 467 mmHg 65%
    10:00 +11°C° 0 mm 3 mps 468 mmHg 59%
    11:00 +12°C° 0 mm 3 mps 468 mmHg 52%
    12:00 +12°C° 0.6 mm 3 mps 468 mmHg 53%
    13:00 +12°C° 0.6 mm 3 mps 468 mmHg 54%
    14:00 +13°C° 0.6 mm 3 mps 467 mmHg 55%
    15:00 +11°C° 1.2 mm 4 mps 466 mmHg 61%
    16:00 +10°C° 1.2 mm 4 mps 465 mmHg 67%
    17:00 +8°C° 1.2 mm 4 mps 464 mmHg 74%
    18:00 +8°C° 0.9 mm 4 mps 464 mmHg 77%
    19:00 +8°C° 0.9 mm 3 mps 465 mmHg 80%
    20:00 +7°C° 0.9 mm 2 mps 465 mmHg 83%
    21:00 +7°C° 0 mm 2 mps 465 mmHg 82%
    22:00 +7°C° 0 mm 2 mps 466 mmHg 82%
    23:00 +7°C° 0 mm 2 mps 466 mmHg 81%

    18 December, Wednesday

    Time Temperature Precipitation Wind Pressure Humidity
    00:00 +7°C° 0.1 mm 2 mps 466 mmHg 80%
    01:00 +7°C° 0.1 mm 2 mps 466 mmHg 79%
    02:00 +7°C° 0.1 mm 2 mps 466 mmHg 78%
    03:00 +7°C° 0 mm 2 mps 465 mmHg 79%
    04:00 +6°C° 0 mm 2 mps 465 mmHg 81%
    05:00 +7°C° 0 mm 1 mps 465 mmHg 82%
    06:00 +7°C° 0 mm 1 mps 465 mmHg 80%
    07:00 +8°C° 0 mm 1 mps 466 mmHg 79%
    08:00 +8°C° 0 mm 1 mps 466 mmHg 77%
    09:00 +10°C° 0 mm 1 mps 467 mmHg 70%
    10:00 +10°C° 0 mm 2 mps 468 mmHg 63%
    11:00 +12°C° 0 mm 2 mps 469 mmHg 56%
    12:00 +13°C° 0.4 mm 2 mps 468 mmHg 55%
    13:00 +12°C° 0.4 mm 3 mps 468 mmHg 55%
    14:00 +13°C° 0.4 mm 4 mps 468 mmHg 54%
    15:00 +12°C° 0.8 mm 4 mps 467 mmHg 58%
    16:00 +11°C° 0.8 mm 4 mps 466 mmHg 62%
    17:00 +10°C° 0.8 mm 4 mps 465 mmHg 66%
    18:00 +10°C° 0.4 mm 3 mps 465 mmHg 67%
    19:00 +9°C° 0.4 mm 3 mps 466 mmHg 68%
    20:00 +9°C° 0.4 mm 2 mps 466 mmHg 68%
    21:00 +9°C° 0 mm 2 mps 466 mmHg 71%
    22:00 +8°C° 0 mm 2 mps 466 mmHg 73%
    23:00 +8°C° 0 mm 2 mps 467 mmHg 75%

    19 December, Thursday

    Time Temperature Precipitation Wind Pressure Humidity
    00:00 +8°C° 0 mm 2 mps 466 mmHg 76%
    01:00 +8°C° 0 mm 1 mps 466 mmHg 77%
    02:00 +8°C° 0 mm 1 mps 465 mmHg 78%
    03:00 +8°C° 0 mm 1 mps 465 mmHg 80%
    04:00 +8°C° 0 mm 1 mps 465 mmHg 82%
    05:00 +7°C° 0 mm 2 mps 465 mmHg 84%
    06:00 +8°C° 0 mm 1 mps 466 mmHg 80%
    07:00 +9°C° 0 mm 1 mps 466 mmHg 77%
    08:00 +9°C° 0 mm 1 mps 467 mmHg 73%
    09:00 +11°C° 0.5 mm 1 mps 467 mmHg 65%
    10:00 +12°C° 0.5 mm 2 mps 468 mmHg 58%
    11:00 +14°C° 0.5 mm 2 mps 469 mmHg 50%
    12:00 +13°C° 0.5 mm 3 mps 468 mmHg 51%
    13:00 +13°C° 0.5 mm 4 mps 468 mmHg 51%
    14:00 +14°C° 0.5 mm 5 mps 468 mmHg 51%
    15:00 +12°C° 2.5 mm 4 mps 466 mmHg 59%
    16:00 +10°C° 2.5 mm 4 mps 464 mmHg 67%
    17:00 +8°C° 2.5 mm 3 mps 463 mmHg 74%
    18:00 +8°C° 0.2 mm 2 mps 464 mmHg 71%
    19:00 +8°C° 0.2 mm 2 mps 465 mmHg 67%
    20:00 +10°C° 0.2 mm 1 mps 466 mmHg 64%
    21:00 +9°C° 0 mm 2 mps 466 mmHg 65%
    22:00 +8°C° 0 mm 2 mps 466 mmHg 66%
    23:00 +8°C° 0 mm 2 mps 467 mmHg 67%
    Show more